Regional Weather Roundup
Issued by NWS Green Bay, WI

Home | Current Version | Previous Version | Text Only | Print | Product List | Glossary On
Versions: 1 2 3 4 5 6 7 8 9 10 11 12 13 14 15 16 17 18 19 20 21 22 23 24 25 26 27 28 29 30 31 32 33 34 35 36 37 38 39 40 41 42 43 44 45 46 47 48 49 50
000
ASUS43 KGRB 250111
RWRGRB

NORTH-CENTRAL AND NORTHEAST WISCONSIN REGIONAL WEATHER ROUNDUP
NATIONAL WEATHER SERVICE GREEN BAY WI
800 PM CDT SAT JUN 24 2017

WIZ005-009-010>012-018-019-250200-
NORTH CENTRAL WISCONSIN

CITY           SKY/WX    TMP DP  RH WIND       PRES   REMARKS
IRONWOOD       RAIN      54  52  93 SW3       29.95S
MANITOWISH WTR CLOUDY    55  50  85 W5        29.95R
ARBOR VITAE    CLOUDY    57  49  75 NW5       29.94S
EAGLE RIVER    CLOUDY    55  46  72 W8        29.94S
LAND O LAKES   LGT RAIN  54  52  94 CALM      29.95S
RHINELANDER    CLOUDY    53  49  86 NW3       29.96R
PHILLIPS       MOCLDY    54  50  85 CALM      29.96S
ANTIGO         PTCLDY    58  47  66 NW9       29.95S
TOMAHAWK       NOT AVBL
MERRILL        LGT RAIN  57  48  70 N8        29.97R
$$

WIZ013-073-250200-
NORTHEAST WISCONSIN

CITY           SKY/WX    TMP DP  RH WIND       PRES   REMARKS
IRON MOUNTAIN  CLOUDY    54  50  86 W8        29.92R
MARINETTE      MOCLDY    59  53  80 N7        29.93R
OCONTO         CLOUDY    60  54  82 NE7       29.92R
$$

WIZ017-030-035>037-045-250200-
CENTRAL WISCONSIN

CITY           SKY/WX    TMP DP  RH WIND       PRES   REMARKS
MEDFORD        PTCLDY    57  42  56 W7        29.97R
WAUSAU         CLOUDY    61  42  49 W13       29.94R
MOSINEE        MOCLDY    59  45  58 W12       29.98R
MARSHFIELD     CLOUDY    55  45  68 W8        29.98R
WISC RAPIDS    CLOUDY    58  44  60 NW9       29.99R
STEVENS POINT  LGT RAIN  58  44  60 W15G25    29.97R
WAUPACA        PTCLDY    64  43  45 W7        29.95S
SHAWANO        CLOUDY    64  45  50 W7        29.93S
CLINTONVILLE   CLOUDY    63  43  48 W6        29.93S
WAUTOMA        CLOUDY    58  47  66 W18G29    29.99R
$$

WIZ038-039-048-051-250200-
FOX VALLEY

CITY           SKY/WX    TMP DP  RH WIND       PRES   REMARKS
NWS GREEN BAY  PTCLDY    65  47  52 W8        29.93R
APPLETON       MOCLDY    63  37  39 W9        29.94R
OSHKOSH        MOCLDY    64  46  52 VRB5      29.95S
FOND DU LAC    CLOUDY    64  43  46 W12       29.97R
$$

WIZ022-050-052-250200-
EAST CENTRAL WISCONSIN

CITY           SKY/WX    TMP DP  RH WIND       PRES   REMARKS
EPHRAIM        MOCLDY    58  53  85 NW6       29.92S
WASHINGTON ISL CLOUDY    56  53  90 N7        29.92R
STURGEON BAY     N/A     61  52  72 N8          N/A
MANITOWOC      CLEAR     65  43  44 W6        29.95R
SHEBOYGAN      PTCLDY    64  44  48 W10       29.96R
$$

LMZ563-521-522-541>543-250200-
LAKESHORE

STATION/POSITION TIME  TEMP    WIND        PRES    VSBY  WAVE
                       AIR SEA DIR/SP/G                  HT/PER
                 (UTC) (F)     (DEG/KT/KT) (MB)    (MI)  (FT/S)
SHEBOYGAN LKSHOR 0100   66     270/ 15/ 18 1014.1R
KEWAUNEE LKSHORE 0048   66     260/  5/  7 1013.2R
NORTHPORT PIER   0040   60     320/ 12/ 14 1012.9R
N MID LAKE BUOY  0050   58 57  270/  6/  6 1013.4R         1/ 3
S GREEN BAY BUOY 0100   63      80/ 10/ 12 1012.8
CHAMBERS ISLAND  0040   61     310/ 10/ 12 1012.9R
MENOMINEE LKSHOR 0048          340/  8/ 10 1012.4R
$$



USA.gov is the U.S. government's official web portal to all federal, state and local government web resources and services.